OK1LPD-5 Weather Reports


time (UTC)temp
F
wind
direction
speed
knots
gust
knots
rain 1hr
in
rain 24hr
in
rain mn
in
humidity
%
barometer
mb
20260507065011 53 220 1.7 5.2 0.00 0.17 0.00 99 1008.0
20260507064009 53 182 1.7 3.5 0.00 0.17 0.00 99 1008.1
20260507063011 52 146 0.0 1.7 0.00 0.17 0.00 99 1008.1
20260507062009 51 181 0.0 3.5 0.00 0.17 0.00 99 1008.1
20260507061010 51 354 0.0 1.7 0.00 0.17 0.00 99 1008.1
20260507060013 51 164 0.9 1.7 0.00 0.17 0.00 99 1007.9
20260507055012 51 198 0.9 2.6 0.00 0.17 0.00 99 1007.8
20260507054008 50 159 0.9 1.7 0.00 0.17 0.00 99 1007.6
20260507053012 50 244 0.0 1.7 0.00 0.17 0.00 99 1007.4
20260507052011 50 301 0.0 1.7 0.00 0.17 0.00 99 1007.2
20260507051009 49 0 0.0 0.0 0.00 0.17 0.00 99 1007.1
20260507050012 48 0 0.0 0.0 0.00 0.17 0.00 99 1007.1
20260507045012 47 0 0.0 0.0 0.00 0.17 0.00 99 1006.9
20260507044009 47 0 0.0 0.0 0.00 0.17 0.00 99 1006.8
20260507043012 47 270 0.0 0.9 0.00 0.17 0.00 99 1006.5
20260507042009 47 270 0.0 0.9 0.00 0.17 0.00 99 1006.5
20260507041008 47 270 0.0 0.9 0.00 0.17 0.00 99 1006.4
20260507040012 47 0 0.0 0.0 0.00 0.17 0.00 99 1006.2
20260507035011 47 270 0.0 0.9 0.00 0.17 0.00 99 1006.3
20260507034009 47 270 0.0 0.9 0.00 0.17 0.00 99 1006.1
20260507033011 47 270 0.0 0.9 0.00 0.17 0.00 99 1006.1
20260507032011 46 270 0.0 0.9 0.00 0.17 0.00 99 1005.8
20260507031008 46 0 0.0 0.0 0.00 0.17 0.00 99 1005.7
20260507030013 47 0 0.0 0.0 0.00 0.17 0.00 99 1005.5
20260507025009 47 270 0.0 0.9 0.00 0.17 0.00 99 1005.5
20260507024008 47 270 0.0 0.9 0.00 0.17 0.00 99 1005.4
20260507023011 47 0 0.0 0.0 0.00 0.17 0.00 99 1005.5
20260507022009 48 270 0.0 0.9 0.00 0.17 0.00 99 1005.4
20260507021009 48 270 0.0 0.9 0.00 0.17 0.00 99 1005.3
20260507020011 48 270 0.0 0.9 0.00 0.17 0.00 99 1005.2
20260507015010 48 0 0.0 0.0 0.00 0.17 0.00 99 1005.1
20260507014008 48 0 0.0 0.0 0.00 0.17 0.00 99 1004.9
20260507013011 49 270 0.0 0.9 0.00 0.17 0.00 99 1004.9
20260507012008 49 0 0.0 0.0 0.00 0.17 0.00 99 1004.8
20260507011008 49 0 0.0 0.0 0.00 0.17 0.00 99 1004.7
20260507010011 50 270 0.0 0.9 0.00 0.17 0.00 99 1004.6
20260507005008 50 270 0.0 0.9 0.00 0.17 0.00 99 1004.4
20260507004008 50 270 0.0 0.9 0.00 0.17 0.00 99 1004.1
20260507003011 51 1 0.0 0.9 0.00 0.17 0.00 99 1004.1
20260507002008 51 0 0.0 0.0 0.00 0.17 0.00 99 1004.2
20260507001008 51 179 0.0 1.7 0.00 0.17 0.00 99 1004.2
20260507000011 51 228 0.0 3.5 0.00 0.17 0.00 99 1004.2
20260506235009 51 326 0.0 0.9 0.00 0.17 0.00 99 1004.0
20260506234007 51 285 0.0 0.9 0.00 0.17 0.00 99 1004.0
20260506233008 51 264 0.0 0.9 0.00 0.17 0.00 99 1003.5
20260506232008 52 260 0.0 0.9 0.00 0.17 0.00 99 1003.4
20260506231007 52 270 0.0 0.9 0.00 0.17 0.00 99 1003.4
20260506230008 52 0 0.0 0.0 0.00 0.17 0.00 99 1003.3
20260506225008 53 172 0.0 1.7 0.00 0.17 0.00 99 1003.1
20260506224008 53 0 0.0 0.0 0.00 0.17 0.00 99 1003.1
20260506223010 53 314 0.0 1.7 0.00 0.17 0.00 99 1002.9
20260506222007 53 0 0.0 0.0 0.00 0.17 0.00 99 1002.8
20260506221008 54 314 0.0 1.7 0.00 0.17 0.00 99 1002.8
20260506220010 54 325 0.0 1.7 0.00 0.17 0.00 99 1002.6
20260506215008 54 263 0.0 1.7 0.00 0.17 0.17 99 1002.6
20260506214009 54 286 0.9 1.7 0.00 0.17 0.17 99 1002.5
20260506213007 54 270 0.0 1.7 0.00 0.17 0.17 99 1002.1
20260506212008 54 269 0.9 1.7 0.00 0.17 0.17 99 1001.9
20260506211008 54 267 0.0 2.6 0.00 0.17 0.17 99 1001.2
20260506210008 54 282 0.9 5.2 0.00 0.17 0.17 99 1001.3
20260506205008 54 317 0.0 2.6 0.17 0.17 0.17 99 1001.0
20260506204008 54 335 0.0 2.6 0.17 0.17 0.17 99 1001.4
20260506203007 54 289 0.0 2.6 0.17 0.17 0.17 99 1001.6
20260506202008 55 221 0.0 1.7 0.17 0.17 0.17 99 1001.4
20260506195012 73 222 0.0 2.6 0.00 0.00 0.00 75 1003.4
20260506194015 73 222 0.0 2.6 0.00 0.00 0.00 75 1003.4
20260506193014 73 222 0.0 2.6 0.00 0.00 0.00 75 1003.4
20260506192012 73 222 0.0 2.6 0.00 0.00 0.00 75 1003.4
20260506191016 73 222 0.0 2.6 0.00 0.00 0.00 75 1003.4
20260506190015 73 222 0.0 2.6 0.00 0.00 0.00 75 1003.4
20260506185013 73 222 0.0 2.6 0.00 0.00 0.00 75 1003.4
20260506184015 73 222 0.0 2.6 0.00 0.00 0.00 75 1003.4
20260506183013 73 222 0.0 2.6 0.00 0.00 0.00 75 1003.4
20260506182013 73 222 0.0 2.6 0.00 0.00 0.00 75 1003.4
20260506181015 73 222 0.0 2.6 0.00 0.00 0.00 75 1003.4
20260506180015 73 222 0.0 2.6 0.00 0.00 0.00 75 1003.4
20260506175015 73 222 0.0 2.6 0.00 0.00 0.00 75 1003.4
20260506174016 73 222 0.0 2.6 0.00 0.00 0.00 75 1003.4
20260506173014 73 222 0.0 2.6 0.00 0.00 0.00 75 1003.4
20260506172014 73 222 0.0 2.6 0.00 0.00 0.00 75 1003.4
20260506171011 73 222 0.0 2.6 0.00 0.00 0.00 75 1003.4
20260506170014 73 222 0.0 2.6 0.00 0.00 0.00 75 1003.4
20260506165013 73 222 0.0 2.6 0.00 0.00 0.00 75 1003.4
20260506164014 73 222 0.0 2.6 0.00 0.00 0.00 75 1003.4
20260506163013 73 222 0.0 2.6 0.00 0.00 0.00 75 1003.4
20260506162015 73 222 0.0 2.6 0.00 0.00 0.00 75 1003.4
20260506161013 73 222 0.0 2.6 0.00 0.00 0.00 75 1003.4
20260506160013 73 222 0.0 2.6 0.00 0.00 0.00 75 1003.4
20260506155013 73 222 0.0 2.6 0.00 0.00 0.00 75 1003.4
20260506154013 73 222 0.0 2.6 0.00 0.00 0.00 75 1003.4
20260506153014 73 222 0.0 2.6 0.00 0.00 0.00 75 1003.4
20260506152012 73 222 0.0 2.6 0.00 0.00 0.00 75 1003.4
20260506151007 73 222 0.0 2.6 0.00 0.00 0.00 75 1003.4
20260506150013 73 222 0.0 2.6 0.00 0.00 0.00 75 1003.4
20260506145014 73 222 0.0 2.6 0.00 0.00 0.00 75 1003.4
20260506144014 73 222 0.0 2.6 0.00 0.00 0.00 75 1003.4
20260506143012 73 222 0.0 2.6 0.00 0.00 0.00 75 1003.4
20260506142015 73 222 0.0 2.6 0.00 0.00 0.00 75 1003.4
20260506141012 73 222 0.0 2.6 0.00 0.00 0.00 75 1003.4
20260506140012 73 222 0.0 2.6 0.00 0.00 0.00 75 1003.4
20260506135015 73 222 0.0 2.6 0.00 0.00 0.00 75 1003.4
20260506134013 73 222 0.0 2.6 0.00 0.00 0.00 75 1003.4
20260506133012 73 222 0.0 2.6 0.00 0.00 0.00 75 1003.4
20260506132015 73 222 0.0 2.6 0.00 0.00 0.00 75 1003.4
20260506131014 73 222 0.0 2.6 0.00 0.00 0.00 75 1003.4
20260506130012 73 222 0.0 2.6 0.00 0.00 0.00 75 1003.4
20260506125015 73 222 0.0 2.6 0.00 0.00 0.00 75 1003.4
20260506124013 73 222 0.0 2.6 0.00 0.00 0.00 75 1003.4
20260506123013 73 222 0.0 2.6 0.00 0.00 0.00 75 1003.4
20260506122016 73 222 0.0 2.6 0.00 0.00 0.00 75 1003.4
20260506121016 73 222 0.0 2.6 0.00 0.00 0.00 75 1003.4
20260506120013 73 222 0.0 2.6 0.00 0.00 0.00 75 1003.4
20260506115015 73 222 0.0 2.6 0.00 0.00 0.00 75 1003.4
20260506114010 73 222 0.0 2.6 0.00 0.00 0.00 75 1003.4
20260506113013 73 222 0.0 2.6 0.00 0.00 0.00 75 1003.4
20260506112015 73 222 0.0 2.6 0.00 0.00 0.00 75 1003.4
20260506111013 73 222 0.0 2.6 0.00 0.00 0.00 75 1003.4
20260506110013 73 222 0.0 2.6 0.00 0.00 0.00 75 1003.4
20260506105016 73 222 0.0 2.6 0.00 0.00 0.00 75 1003.4
20260506104016 73 222 0.0 2.6 0.00 0.00 0.00 75 1003.4
20260506103015 73 222 0.0 2.6 0.00 0.00 0.00 75 1003.4
20260506102016 73 222 0.0 2.6 0.00 0.00 0.00 75 1003.4
20260506101015 73 222 0.0 2.6 0.00 0.00 0.00 75 1003.4
20260506100014 73 222 0.0 2.6 0.00 0.00 0.00 75 1003.4
20260506095016 73 222 0.0 2.6 0.00 0.00 0.00 75 1003.4
20260506094009 73 222 0.0 2.6 0.00 0.00 0.00 75 1003.4
20260506093014 73 222 0.0 2.6 0.00 0.00 0.00 75 1003.4
20260506092015 73 222 0.0 2.6 0.00 0.00 0.00 75 1003.4
20260506091013 73 222 0.0 2.6 0.00 0.00 0.00 75 1003.4
20260506085015 73 222 0.0 2.6 0.00 0.00 0.00 75 1003.4
20260506084012 73 222 0.0 2.6 0.00 0.00 0.00 75 1003.4
20260506083009 73 222 0.0 2.6 0.00 0.00 0.00 75 1003.4
20260506082015 73 222 0.0 2.6 0.00 0.00 0.00 75 1003.4
20260506081016 73 222 0.0 2.6 0.00 0.00 0.00 75 1003.4
20260506073014 73 222 0.0 2.6 0.00 0.01 0.00 75 1003.4
20260506072016 73 222 0.0 2.6 0.00 0.01 0.00 75 1003.4
20260506071016 73 222 0.0 2.6 0.00 0.01 0.00 75 1003.4